Tracking 19817 objects as of 18-Aug-2019
HD Live streaming from Space Station
objects crossing your sky now

MOLNIYA 3-8

Track MOLNIYA 3-8 now!
MOLNIYA 3-8 is classified as:


NORAD ID: 10455
Int'l Code: 1977-105A
Perigee: 1,133.2 km
Apogee: 39,266.4 km
Inclination: 62.1 °
Period: 718.4 minutes
Semi major axis: 26570 km
RCS: 13.5006 m2 (large)
Launch date: October 28, 1977
Source: Commonwealth of Independent States (former USSR) (CIS)
Launch site: PLESETSK MISSILE AND SPACE COMPLEX (PKMTR)
aabbcc
Your satellite tracking list
Your tracking list is empty




NASA's NSSDC Master Catalog

Two Line Element Set (TLE):
1 10455U 77105A   19227.88531280 +.00001045 +00000-0 +20604-2 0  9995
2 10455 062.1317 153.7845 7175758 274.1836 014.2132 02.00445193306348
Source of the keplerian elements: AFSPC